Location: Unspecified
(47.9110°N, 14.3980°E)
Time: 14:29:11
(UTC+00:00)

SL-8 Rocket - Pass Details

Date: 06 August 2020
Orbit: 958 x 989 km, 82.9° (Epoch: 18 September)

Event Time Altitude Azimuth Distance (km) Brightness Sun altitude
Rises 19:10:15 0° 195° (SSW) 3,630 6.8 -6.7°
Reaches altitude 10° 19:12:45 10° 197° (SSW) 2,691 6.2 -7.1°
Maximum altitude 19:18:53 69° 281° (W) 1,031 4.4 -7.9°
Drops below altitude 10° 19:25:07 10° 5° (N) 2,728 6.8 -8.7°
Sets 19:27:40 0° 8° (N) 3,685 7.4 -9.1°
